GPM-CORE

Last updated on Fri Feb 06 2026 00:02:32 GMT+0000 (Coordinated Universal Time)

1 39574U 14009C 26035.61779446 .00010855 00000+0 23607-3 0 9991 2 39574 64.9742 32.1896 0010005 249.6895 110.3171 15.44687551677336
UTC large
Height (km)
Speed (km/s)
/
Latitude / Longitude
Inclination (degrees)
Orbital Period (minutes)
Azimuth
Elevation
Range (km)
Doppler Factor

Next 0 passes for location: London (51.5072 / 0.1276)

Sorry there are no passes over London.